Franklin, VA

7:39 AM EDT on October 17, 2017 (GMT -0400)
Franklin Municipal-Rose

Weather History for KFKN - May, 2009

Change the Weather History Date:

Sunday, May 17, 2009

  Actual Average (KSFQ) Record (KSFQ)
Temperature  
Mean Temperature 65 °F -  
Max Temperature 73 °F 78 °F 92 °F (2017)
Min Temperature 55 °F 56 °F 43 °F (1955)
Growing Degree Days 15 (Base 50)    
Moisture  
Dew Point 64 °F    
Average Humidity 94    
Maximum Humidity 100    
Minimum Humidity 83    
Precipitation  
Precipitation 0.00 in - - ()
Sea Level Pressure  
Sea Level Pressure 30.01 in    
Wind  
Wind Speed 7 mph (NW)    
Max Wind Speed 20 mph    
Max Gust Speed 31 mph    
Visibility 7 miles    
Events      
Averages and records for this station are not official NWS values.
T = Trace of Precipitation, MM = Missing Value Source: NWS Daily Summary

Daily Weather History Graph

Daily Weather History Graph

Search for Another Location

Airport or City:

Trip Planner

Search our weather history database for the weather conditions in past years. The results will help you decide how hot, cold, wet, or windy it might be!

Date:

Astronomy

May. 17, 2009 Rise Set
Actual Time 5:58 AM EDT 8:09 PM EDT
Civil Twilight 5:29 AM EDT 8:39 PM EDT
Nautical Twilight 4:53 AM EDT 9:14 PM EDT
Astronomical Twilight 4:15 AM EDT 9:53 PM EDT
Moon 1:49 AM EDT 1:08 PM EDT
Length of Visible Light 15h 09m
Length of Day
14h 11m
Waning Gibbous, 46% of the Moon is Illuminated
May 17
Waning Gibbous
May 24
New
May 30
First Quarter
Jun 7
Full
Jun 15
Last Quarter

Hourly Weather History & Observations

Time (EDT) Temp. Dew Point Humidity Pressure Visibility Wind Dir Wind Speed Gust Speed Precip Events Conditions
12:00 AM 71.6 °F 69.8 °F 94% 30.00 in 10.0 mi South 11.5 mph - N/A   Mostly Cloudy
12:20 AM 71.6 °F 69.8 °F 94% 30.00 in 10.0 mi South 8.1 mph - N/A   Mostly Cloudy
12:40 AM 71.6 °F 69.8 °F 94% 30.00 in 10.0 mi South 9.2 mph - N/A   Scattered Clouds
1:00 AM 71.6 °F 69.8 °F 94% 29.99 in 10.0 mi SSW 6.9 mph - N/A   Scattered Clouds
1:20 AM 71.6 °F 69.8 °F 94% 29.99 in 10.0 mi SSW 5.8 mph - N/A   Scattered Clouds
1:40 AM 71.6 °F 69.8 °F 94% 29.98 in 10.0 mi South 6.9 mph - N/A   Overcast
2:00 AM 71.6 °F 69.8 °F 94% 29.97 in 5.0 mi SSW 5.8 mph - N/A   Mostly Cloudy
2:20 AM 71.6 °F 69.8 °F 94% 29.97 in 3.0 mi SSW 4.6 mph - N/A   Scattered Clouds
2:40 AM 71.6 °F 69.8 °F 94% 29.96 in 10.0 mi South 6.9 mph - N/A   Scattered Clouds
3:00 AM 71.6 °F 69.8 °F 94% 29.95 in 7.0 mi South 5.8 mph - N/A   Mostly Cloudy
3:20 AM 71.6 °F 69.8 °F 94% 29.95 in 5.0 mi South 5.8 mph - N/A   Overcast
3:40 AM 71.6 °F 69.8 °F 94% 29.94 in 2.5 mi SSW 9.2 mph - N/A   Mostly Cloudy
4:00 AM 71.6 °F 69.8 °F 94% 29.94 in 3.0 mi SW 9.2 mph - N/A   Mostly Cloudy
4:20 AM 71.6 °F 69.8 °F 94% 29.94 in 10.0 mi SSW 4.6 mph - N/A   Overcast
4:40 AM 71.6 °F 69.8 °F 94% 29.94 in 10.0 mi South 3.5 mph - N/A   Overcast
5:00 AM 71.6 °F 69.8 °F 94% 29.94 in 10.0 mi SW 4.6 mph - N/A   Overcast
5:20 AM 71.6 °F 69.8 °F 94% 29.95 in 1.2 mi West 4.6 mph - N/A   Overcast
5:40 AM 69.8 °F 68.0 °F 94% 29.95 in 10.0 mi Calm Calm - N/A   Overcast
6:00 AM 69.8 °F 68.0 °F 94% 29.95 in 10.0 mi Calm Calm - N/A   Overcast
6:20 AM 69.8 °F 69.8 °F 100% 29.95 in 10.0 mi Calm Calm - N/A   Overcast
6:40 AM 71.6 °F 69.8 °F 94% 29.96 in 10.0 mi Calm Calm - N/A   Overcast
7:00 AM 71.6 °F 69.8 °F 94% 29.97 in 10.0 mi SSW 4.6 mph - N/A   Overcast
7:20 AM 71.6 °F 71.6 °F 100% 29.97 in 5.0 mi South 6.9 mph - N/A   Overcast
8:00 AM 71.6 °F 69.8 °F 94% 29.97 in 10.0 mi SSW 3.5 mph - N/A   Overcast
8:20 AM 71.6 °F 69.8 °F 94% 29.97 in 10.0 mi SSW 5.8 mph - N/A   Overcast
8:40 AM 71.6 °F 69.8 °F 94% 29.98 in 10.0 mi SW 5.8 mph - N/A   Overcast
9:00 AM 71.6 °F 69.8 °F 94% 29.97 in 10.0 mi SW 5.8 mph - N/A   Overcast
9:20 AM 71.6 °F 69.8 °F 94% 29.97 in 10.0 mi WSW 4.6 mph - N/A   Overcast
9:40 AM 73.4 °F 69.8 °F 88% 29.97 in 10.0 mi Calm Calm - N/A   Overcast
10:00 AM 68.0 °F 62.6 °F 83% 29.98 in 7.0 mi North 19.6 mph 31.1 mph N/A   Overcast
10:20 AM 62.6 °F 60.8 °F 94% 30.01 in 1.0 mi North 16.1 mph 27.6 mph N/A   Overcast
10:40 AM 62.6 °F 60.8 °F 94% 30.01 in 5.0 mi North 11.5 mph 20.7 mph N/A   Overcast
11:00 AM 60.8 °F 60.8 °F 100% 30.02 in 0.8 mi North 15.0 mph 21.9 mph N/A   Overcast
11:20 AM 60.8 °F 60.8 °F 100% 30.02 in 1.0 mi North 6.9 mph 16.1 mph N/A   Overcast
11:40 AM 60.8 °F 60.8 °F 100% 30.04 in 1.2 mi North 5.8 mph - N/A   Overcast
12:00 PM 60.8 °F 60.8 °F 100% 30.04 in 1.0 mi NNW 6.9 mph 16.1 mph N/A   Overcast
12:20 PM 60.8 °F 59.0 °F 94% 30.05 in 1.2 mi NNW 9.2 mph 21.9 mph N/A   Overcast
12:40 PM 60.8 °F 59.0 °F 94% 30.05 in 2.5 mi North 9.2 mph - N/A   Overcast
1:00 PM 60.8 °F 57.2 °F 88% 30.05 in 2.5 mi North 9.2 mph - N/A   Overcast
1:20 PM 60.8 °F 59.0 °F 94% 30.05 in 3.0 mi North 5.8 mph - N/A   Overcast
1:40 PM 60.8 °F 59.0 °F 94% 30.05 in 3.0 mi North 5.8 mph - N/A   Overcast
2:00 PM 60.8 °F 59.0 °F 94% 30.04 in 5.0 mi NNE 5.8 mph - N/A   Overcast
2:20 PM 60.8 °F 59.0 °F 94% 30.04 in 3.0 mi North 9.2 mph - N/A   Overcast
3:00 PM 59.0 °F 57.2 °F 94% 30.05 in 3.0 mi North 9.2 mph - N/A   Overcast
3:20 PM 60.8 °F 57.2 °F 88% 30.05 in 3.0 mi North 8.1 mph 18.4 mph N/A   Overcast
3:40 PM 59.0 °F 57.2 °F 94% 30.05 in 2.5 mi North 8.1 mph - N/A   Overcast
4:00 PM 59.0 °F 57.2 °F 94% 30.05 in 4.0 mi North 6.9 mph - N/A   Overcast
4:20 PM 59.0 °F 57.2 °F 94% 30.05 in 3.0 mi North 6.9 mph - N/A   Overcast
5:00 PM 59.0 °F 57.2 °F 94% 30.07 in 10.0 mi North 8.1 mph - N/A   Overcast
5:20 PM 59.0 °F 57.2 °F 94% 30.07 in 5.0 mi North 11.5 mph 16.1 mph N/A   Overcast
5:40 PM 59.0 °F 55.4 °F 88% 30.07 in 10.0 mi North 8.1 mph - N/A   Overcast
6:00 PM 59.0 °F 55.4 °F 88% 30.07 in 10.0 mi North 6.9 mph - N/A   Overcast
6:20 PM 57.2 °F 55.4 °F 94% 30.07 in 10.0 mi North 4.6 mph - N/A   Overcast
6:40 PM 57.2 °F 55.4 °F 94% 30.08 in 10.0 mi North 5.8 mph - N/A   Overcast
7:00 PM 57.2 °F 57.2 °F 100% 30.08 in 10.0 mi NNE 3.5 mph - N/A   Overcast
7:20 PM 57.2 °F 57.2 °F 100% 30.09 in 10.0 mi North 3.5 mph - N/A   Overcast
7:40 PM 57.2 °F 57.2 °F 100% 30.09 in 10.0 mi North 4.6 mph - N/A   Overcast
8:00 PM 55.4 °F 51.8 °F 88% 30.10 in 10.0 mi North 10.4 mph 18.4 mph N/A   Overcast
8:20 PM 55.4 °F 51.8 °F 88% 30.10 in 10.0 mi NNE 6.9 mph - N/A   Overcast
8:40 PM 53.6 °F 51.8 °F 94% 30.11 in 10.0 mi North 4.6 mph - N/A   Overcast
9:00 PM 53.6 °F 51.8 °F 94% 30.12 in 10.0 mi North 5.8 mph - N/A   Overcast
9:20 PM 53.6 °F 51.8 °F 94% 30.13 in 10.0 mi North 6.9 mph - N/A   Overcast
9:40 PM 53.6 °F 51.8 °F 94% 30.13 in 10.0 mi North 4.6 mph - N/A   Overcast
10:00 PM 53.6 °F 51.8 °F 94% 30.14 in 10.0 mi NNW 3.5 mph - N/A   Overcast
10:20 PM 53.6 °F 51.8 °F 94% 30.15 in 10.0 mi NNW 3.5 mph - N/A   Overcast
10:40 PM 55.4 °F 51.8 °F 88% 30.15 in 10.0 mi North 3.5 mph - N/A   Overcast
11:00 PM 55.4 °F 51.8 °F 88% 30.15 in 10.0 mi North 3.5 mph - N/A   Overcast
11:20 PM 55.4 °F 51.8 °F 88% 30.15 in 10.0 mi Calm Calm - N/A   Overcast
11:40 PM 55.4 °F 51.8 °F 88% 30.16 in 10.0 mi Calm Calm - N/A   Overcast